Wind_Speed
42 43 42 41 41 42 42 42 42 43 42 42 41 41 42 42 43 41 37 37 38 38 38 37 40 42 42 42 40 39 41 41 40 41 40 39 40 40 39 38 37 38 40 42 45 48 48 46 44 43 43 42 42 42 41 41 40 40 41 42 42 42 42 42 42 42 42 42 42 41 41 40 40 39 38 37 37 36 35 35 35 34 35 35 35 36
44 44 42 41 43 43 43 43 43 43 43 43 43 43 43 44 46 44 40 40 40 41 41 39 41 43 43 43 43 42 42 42 42 42 42 41 41 41 41 39 37 35 37 39 43 47 46 43 41 39 39 38 38 37 36 36 36 35 36 37 37 38 38 38 38 38 38 38 38 38 37 36 36 35 35 34 34 33 33 33 33 33 33 33 33 34
45 43 41 43 44 43 43 43 43 44 44 44 44 44 45 46 47 47 44 41 41 44 43 41 43 44 44 45 45 45 44 44 44 43 43 43 43 43 43 41 38 36 35 39 45 47 45 41 39 38 36 35 34 34 33 32 31 31 32 33 34 34 34 34 34 34 34 34 34 35 34 33 33 32 32 31 31 31 31 31 31 31 32 32 32 32
44 40 41 43 43 42 43 43 43 44 44 44 45 45 46 47 48 49 46 42 43 45 44 43 45 45 46 47 46 46 47 47 46 45 45 44 45 45 44 42 41 40 39 42 45 43 41 40 39 37 36 34 33 33 31 30 28 28 29 30 31 31 31 31 31 32 32 31 31 32 31 31 30 30 29 29 29 29 29 30 30 30 31 31 31 31
43 40 42 43 42 42 43 43 43 43 43 43 44 45 46 47 48 48 46 44 45 46 45 45 46 47 48 47 47 48 49 49 47 47 46 46 46 46 45 44 44 43 41 43 44 41 40 41 40 38 37 35 35 34 31 29 27 26 28 30 29 30 30 29 29 30 30 29 28 29 29 29 28 28 28 28 28 28 28 29 29 29 30 30 30 31
41 40 42 42 42 42 42 42 42 42 41 42 43 44 44 45 45 46 44 44 46 46 46 47 47 49 49 48 49 50 49 50 49 48 48 47 48 48 47 46 46 45 42 43 42 39 42 44 42 41 39 38 37 36 33 31 29 28 29 30 29 29 30 29 28 28 29 28 28 28 27 27 27 27 27 27 27 27 27 28 28 29 29 29 29 29
39 40 41 40 41 42 41 41 41 41 40 40 42 42 41 42 42 43 43 43 45 45 46 46 46 47 48 48 51 50 50 51 50 50 49 49 49 50 49 48 48 47 44 44 42 41 45 47 44 43 42 41 40 38 36 34 33 31 30 31 30 30 30 29 29 29 29 28 27 28 27 26 26 26 26 27 27 27 27 27 28 28 29 29 29 28
39 39 40 40 40 41 41 40 40 41 39 39 41 41 40 40 40 40 41 41 43 44 43 44 44 44 45 49 50 49 50 51 50 50 50 50 50 50 50 50 50 48 45 46 47 47 48 48 46 46 45 44 42 40 39 38 35 33 33 33 32 32 32 31 30 30 29 28 27 27 27 26 26 26 26 27 27 27 27 27 27 27 28 28 28 28
40 39 40 40 41 41 41 40 41 41 40 39 41 41 40 40 40 39 40 41 43 43 41 41 42 42 43 47 49 47 48 49 48 48 49 50 49 49 49 50 50 49 47 48 49 49 49 48 48 48 47 46 44 42 42 41 38 36 35 36 35 35 34 33 32 31 31 30 29 28 27 26 26 26 26 26 27 27 27 27 27 27 28 28 28 28
42 41 41 41 42 42 41 42 42 41 41 41 41 41 42 42 41 41 40 41 43 41 39 40 42 41 41 45 47 46 45 47 46 45 47 48 47 47 47 48 50 50 49 49 49 49 49 49 49 48 48 47 46 45 43 42 41 39 38 38 38 37 37 36 34 33 33 32 31 30 29 28 27 27 27 27 27 27 27 27 27 28 28 28 28 28
44 42 42 42 43 43 43 43 44 43 43 43 42 42 43 44 44 43 42 43 43 41 40 41 43 42 42 44 46 46 45 46 46 44 44 45 45 44 46 47 48 49 49 49 49 49 50 50 50 49 48 47 47 46 45 43 42 41 40 40 40 40 40 39 38 37 36 35 34 33 32 31 30 29 29 29 29 29 29 29 29 29 29 29 29 29
45 44 43 43 44 44 44 45 45 45 46 45 44 44 46 47 46 45 45 45 44 43 43 45 45 43 43 45 48 48 47 47 47 45 44 44 44 43 44 45 46 47 48 48 48 48 49 50 50 49 48 47 47 47 46 44 43 42 42 42 42 41 41 42 41 40 40 38 37 37 36 35 34 33 32 32 32 31 31 31 31 30 30 30 30 31
46 46 46 45 46 45 45 46 46 47 49 48 46 47 49 50 49 47 47 47 47 48 48 48 47 45 45 48 50 50 51 49 48 48 47 46 45 45 45 45 45 46 47 46 46 46 47 48 48 48 47 46 46 47 46 45 44 44 43 43 43 43 43 43 43 43 42 41 40 39 39 38 37 37 36 35 35 35 34 34 33 33 32 32 32 33
49 50 49 48 48 48 48 47 47 49 50 48 48 50 51 53 52 48 48 50 51 52 51 49 48 48 49 50 51 52 54 53 51 51 50 49 48 48 48 48 48 48 48 48 48 47 47 48 48 47 47 46 46 47 45 44 45 45 45 45 44 44 44 44 44 44 44 43 43 42 41 41 41 40 40 39 39 39 38 38 37 36 36 36 35 35
52 53 52 51 50 49 49 49 49 51 51 49 49 52 53 55 55 51 51 52 53 54 53 50 49 51 51 52 52 54 56 56 56 55 54 53 52 51 51 51 52 51 51 51 51 51 51 51 51 50 49 48 48 47 46 45 45 45 45 45 45 45 45 45 45 45 45 45 44 44 44 44 44 44 44 43 43 42 42 42 41 40 40 39 39 38
55 55 54 53 52 51 51 51 51 52 52 51 51 52 54 56 56 55 53 54 55 55 55 52 51 52 54 55 55 56 57 58 58 58 57 55 54 54 54 54 54 54 55 54 54 54 54 54 54 54 53 52 52 51 49 48 47 46 46 45 45 45 46 46 47 47 47 47 47 47 46 46 47 47 47 47 47 46 45 44 44 44 44 43 42 42
56 57 55 55 54 53 53 52 52 53 52 52 52 53 55 57 57 56 54 55 55 55 55 55 54 54 56 58 58 59 59 60 60 60 59 58 56 56 56 56 56 57 57 57 56 56 56 56 56 56 56 56 55 55 54 53 52 50 49 48 47 46 47 47 47 47 48 48 49 49 48 49 49 49 49 50 50 49 48 47 47 47 46 46 46 45
57 58 57 55 54 54 54 52 52 52 52 52 52 53 55 57 57 56 54 55 55 55 54 56 55 55 58 60 59 59 60 60 61 61 60 59 58 57 58 58 58 58 59 58 58 58 58 58 58 58 58 58 58 58 57 57 56 54 53 52 51 50 49 49 49 48 49 49 49 49 49 50 50 50 51 51 51 51 50 50 50 50 49 49 48 48
56 57 57 55 53 53 52 50 49 49 50 51 51 53 55 56 55 55 54 53 54 54 53 55 56 55 58 60 59 59 61 60 61 62 61 59 59 58 59 60 60 60 60 60 60 60 60 60 60 60 61 61 60 60 60 59 59 58 57 56 54 53 53 53 52 51 52 52 51 51 50 50 51 51 51 51 51 52 51 51 51 52 52 52 52 51
56 55 54 53 52 51 50 49 47 47 48 50 50 52 53 54 54 53 53 53 53 53 53 55 56 55 57 59 58 58 61 62 62 62 61 60 59 60 61 61 62 62 62 62 61 61 61 61 62 62 63 63 62 62 62 62 61 61 59 59 58 56 56 56 55 55 55 56 55 54 53 51 51 51 51 51 51 52 52 52 52 52 53 54 54 55
55 54 53 53 52 51 51 49 47 48 49 50 50 50 52 53 53 53 53 54 53 52 54 55 54 55 57 56 57 59 60 60 62 62 61 60 59 60 61 61 62 62 62 62 62 62 62 62 62 63 63 63 63 64 64 64 64 63 62 61 60 59 58 58 58 58 59 59 59 57 55 54 53 53 53 53 53 52 52 52 52 53 53 54 55 55
54 53 53 53 52 51 53 50 49 50 50 50 50 50 51 53 53 53 53 54 53 53 55 55 53 55 56 55 58 60 59 60 62 62 61 60 59 59 60 60 60 61 60 60 60 60 60 61 61 62 62 62 62 63 63 63 63 63 62 63 62 61 60 60 60 61 61 61 61 60 58 57 57 57 57 57 56 55 54 53 54 54 54 55 55 56
54 55 54 54 53 53 54 52 51 53 52 51 51 51 53 53 53 53 53 54 55 54 55 55 54 55 54 55 59 59 59 59 60 60 59 58 58 59 58 58 57 57 58 58 57 57 57 57 58 58 58 58 58 59 59 59 60 60 60 60 60 60 60 59 60 61 61 61 62 61 61 60 61 61 60 60 60 58 57 56 56 56 57 57 56 57
55 57 55 55 54 54 55 53 52 54 55 54 52 53 54 53 54 55 55 56 56 55 56 56 56 55 55 56 58 58 58 58 58 58 57 57 57 58 57 56 55 55 55 55 55 55 54 54 54 54 55 55 54 55 55 55 56 56 57 56 56 57 57 57 58 59 59 59 61 61 60 60 61 62 61 61 62 61 61 60 60 60 60 60 59 59
57 58 57 55 55 55 56 55 54 56 58 56 54 55 55 54 56 57 56 57 56 55 58 58 56 57 57 56 57 57 57 57 56 57 56 56 56 56 55 55 54 53 53 53 53 53 53 53 53 53 53 53 53 53 53 53 53 53 54 54 54 54 54 54 55 56 56 57 58 59 58 58 60 61 62 63 62 61 61 62 63 64 64 62 61 61
58 60 58 56 56 56 56 57 57 59 60 58 56 56 56 56 58 58 58 58 56 55 58 57 55 58 59 57 57 57 57 56 55 54 55 54 54 53 53 53 53 53 52 52 53 53 53 54 54 53 53 53 53 53 53 52 52 52 52 52 53 53 53 54 54 55 56 55 56 56 55 54 53 55 59 61 61 60 61 63 63 64 66 66 64 63
58 60 59 57 57 57 58 59 59 61 61 59 57 58 58 57 58 59 58 58 58 58 58 56 56 59 61 59 57 56 58 57 55 54 54 54 52 51 52 52 53 53 53 53 54 54 55 55 55 56 55 55 55 54 54 54 54 54 53 53 54 54 54 55 55 55 56 56 56 55 54 52 50 52 56 58 57 54 55 59 61 62 64 64 64 65
58 58 58 58 58 58 59 60 60 62 62 60 59 59 60 59 58 59 59 58 59 59 56 56 59 59 59 59 58 57 58 56 55 55 55 54 53 52 53 54 53 54 55 55 55 55 56 56 57 57 58 57 57 57 57 56 56 56 56 56 56 56 57 57 57 57 57 57 57 56 56 56 57 59 60 59 54 47 46 51 53 50 50 54 59 63
56 55 56 58 58 58 59 60 61 62 63 61 60 60 61 60 59 59 59 59 61 60 57 58 60 58 57 59 61 61 59 56 56 57 56 56 55 53 54 55 55 55 56 55 55 56 56 57 58 58 59 59 59 59 59 59 58 58 58 59 59 59 60 60 60 60 60 60 60 59 59 59 60 62 62 60 58 55 54 55 50 42 41 47 52 53
54 54 54 55 57 56 57 59 60 62 64 62 60 59 60 60 59 59 58 59 63 62 59 59 59 57 57 60 63 63 61 58 58 59 59 58 57 55 55 56 57 58 57 56 56 57 57 58 59 59 60 61 62 62 62 61 61 61 61 62 62 62 62 62 62 62 62 62 62 62 62 62 62 63 63 63 62 61 61 61 59 54 53 57 58 53
51 52 52 54 54 53 55 58 60 62 63 60 57 58 59 60 60 60 59 60 63 63 61 60 58 55 58 62 63 61 61 61 61 61 62 62 60 57 57 58 59 59 59 58 59 60 60 61 61 62 63 64 65 65 65 65 65 65 65 65 65 65 65 65 65 65 65 65 65 65 65 65 65 65 66 66 65 65 64 64 63 63 64 65 65 63
51 51 51 53 52 50 53 57 58 59 59 55 54 55 59 60 60 60 61 61 62 62 62 62 58 56 59 62 62 60 60 61 63 64 63 63 63 61 60 60 61 61 60 60 61 63 64 64 64 65 66 67 68 68 68 68 69 68 69 69 69 68 69 69 68 68 68 68 68 68 68 68 68 68 69 69 68 68 68 67 66 67 67 68 68 67
52 52 51 53 52 50 53 57 57 55 52 51 52 55 58 58 58 60 62 62 63 63 62 60 58 58 60 59 59 61 62 61 64 66 65 66 66 65 63 64 65 64 61 61 62 64 65 66 67 68 69 70 70 70 70 71 71 71 71 72 72 71 71 72 72 71 71 71 71 70 70 70 70 71 71 72 71 70 70 70 71 70 70 71 70 69
52 52 52 54 54 50 52 57 57 51 49 52 55 56 56 57 59 61 62 62 63 63 61 59 58 60 60 59 59 62 63 63 66 68 68 69 70 68 67 69 69 66 64 63 64 65 66 69 71 71 72 72 72 72 72 72 72 72 73 73 73 73 73 74 74 74 74 73 73 72 72 72 72 72 73 73 73 73 73 73 74 74 74 73 73 73
53 53 53 56 56 52 53 58 56 49 49 55 58 55 54 57 60 61 60 61 61 61 60 60 59 60 61 61 62 63 64 66 69 71 72 73 73 71 70 71 70 68 66 65 65 65 68 70 72 72 73 73 74 74 74 74 74 74 74 75 75 75 75 75 75 75 75 75 75 74 74 73 73 73 73 74 74 74 74 75 75 76 76 76 75 75
57 56 56 58 59 56 56 58 56 52 53 57 58 55 55 59 61 61 60 61 61 61 62 62 61 62 64 64 64 65 66 68 71 75 77 76 75 73 73 73 72 70 69 68 68 68 70 71 72 72 73 74 75 75 75 74 74 74 75 75 75 76 76 76 76 77 77 77 77 76 76 75 75 74 74 74 74 74 74 75 76 76 77 77 76 76
60 60 60 60 61 60 60 60 59 57 57 58 59 59 59 61 63 63 62 63 63 64 65 65 65 66 66 67 67 67 69 71 74 78 79 78 76 75 75 76 75 74 73 73 72 72 73 73 73 73 74 74 75 75 75 75 75 75 75 75 76 76 76 77 77 78 79 79 78 78 78 77 77 76 75 75 76 76 76 76 76 77 78 78 77 77
62 63 64 63 62 62 63 63 62 61 61 61 61 61 62 63 65 66 66 66 67 66 67 67 68 69 69 69 69 70 72 75 79 82 82 79 77 76 77 80 80 79 77 76 75 75 74 74 74 74 74 75 75 75 75 75 76 76 76 76 76 76 77 77 78 79 79 79 79 79 79 79 79 78 77 77 77 77 77 77 77 78 78 79 79 78
66 65 66 66 64 65 66 66 65 64 65 65 64 64 64 66 68 69 70 70 69 69 69 69 71 72 72 72 72 74 76 80 84 86 83 79 78 78 80 82 83 82 80 79 78 77 76 76 76 75 75 75 75 75 75 75 75 75 76 76 76 77 78 78 79 80 80 79 79 79 79 79 79 79 78 78 78 78 79 79 79 79 79 79 79 79
70 69 68 68 67 67 68 69 68 68 68 66 66 67 68 69 71 73 74 74 72 72 72 73 75 76 76 75 76 78 80 84 88 87 84 80 80 81 82 83 83 83 82 81 79 78 77 77 76 75 75 75 75 75 75 75 75 75 75 76 76 77 78 79 80 81 80 80 79 79 79 79 78 79 79 79 79 79 79 79 80 80 80 80 80 80
71 72 72 70 69 70 72 72 71 71 71 68 69 71 72 73 75 75 76 77 76 76 76 77 77 79 79 78 79 80 84 87 88 87 85 83 82 82 83 83 83 83 83 82 80 78 78 78 76 76 76 75 75 75 75 75 74 74 75 75 76 77 78 79 80 81 80 80 79 79 78 78 78 78 79 79 78 78 78 79 79 79 79 80 79 80
72 73 73 72 72 73 75 75 73 74 74 72 71 73 76 77 78 77 78 79 80 80 80 79 79 80 79 80 80 82 84 86 87 86 86 86 84 83 82 82 82 82 81 81 79 78 77 77 75 75 74 74 73 73 72 73 72 72 73 73 74 75 77 78 79 79 78 78 78 78 77 77 77 77 77 77 77 76 76 77 77 77 77 77 77 78
74 74 74 74 75 75 77 78 76 76 77 75 75 76 78 78 79 79 81 83 83 82 81 80 80 80 79 80 81 82 84 85 86 86 86 86 84 82 81 80 80 80 79 78 77 76 75 74 73 72 72 71 70 69 69 69 69 69 69 70 71 72 73 75 75 75 75 74 74 74 75 75 74 74 73 73 72 72 72 72 72 72 73 73 73 74
75 75 76 76 76 76 77 79 80 79 79 79 78 78 78 77 79 82 84 84 84 83 81 80 79 80 80 80 80 81 82 83 84 84 84 84 83 81 78 77 77 76 76 75 74 73 72 70 69 69 69 68 67 67 67 67 66 65 65 66 66 67 68 69 69 68 68 68 68 69 70 70 69 69 69 68 68 68 68 68 68 69 69 69 70 70
77 75 75 76 78 77 77 78 80 79 79 80 79 79 78 77 78 81 83 83 82 81 80 78 76 77 78 78 77 77 78 79 80 80 80 80 79 78 76 74 73 72 72 71 71 70 68 67 66 66 65 65 65 65 65 65 64 63 62 63 63 63 63 63 63 62 62 63 63 64 65 65 65 65 65 65 65 65 65 65 66 66 66 66 67 66
76 74 73 75 78 78 75 75 77 77 77 78 78 77 76 76 77 78 78 78 77 77 77 75 74 74 75 75 74 73 73 74 75 76 76 76 75 75 74 72 71 69 69 68 68 66 65 64 63 63 63 63 63 63 63 63 62 61 60 60 60 59 58 58 59 59 59 60 60 61 61 61 61 61 61 62 61 61 62 63 63 63 63 63 64 63
70 70 71 73 74 73 72 72 74 73 72 73 74 73 72 73 73 73 72 72 71 71 72 72 72 71 71 71 70 69 69 70 70 71 71 72 71 71 71 70 68 67 67 66 65 63 62 61 61 60 60 61 61 61 61 60 59 58 58 57 57 56 55 55 56 57 57 57 58 58 58 58 57 57 58 58 58 58 59 59 60 60 60 60 60 60
65 66 68 68 68 68 69 70 70 68 67 68 70 71 71 70 68 66 66 67 66 66 67 67 68 67 67 66 66 66 66 66 67 67 67 67 67 67 68 67 66 66 65 64 62 61 59 58 58 59 59 58 58 58 58 58 57 56 56 55 54 54 53 53 54 54 55 56 56 56 55 54 54 54 54 54 54 55 55 55 56 56 56 57 57 57
62 62 63 62 63 64 66 67 66 64 64 65 67 68 68 67 64 62 62 62 62 62 63 63 63 64 64 64 65 65 64 64 64 65 64 65 65 65 65 65 65 65 64 62 61 59 57 56 56 56 56 55 56 56 56 56 56 55 54 53 53 53 52 51 51 52 52 53 53 52 52 52 51 51 51 51 51 50 50 51 52 52 52 53 53 53
58 58 58 57 58 61 62 63 62 60 61 63 65 65 64 64 62 61 60 60 60 61 60 60 61 62 62 62 63 63 62 62 62 63 62 63 63 64 64 63 63 62 62 60 59 57 55 54 54 54 53 53 55 55 55 55 54 53 52 52 52 51 50 50 49 49 49 49 49 49 49 49 49 49 49 49 48 48 48 48 48 48 49 50 50 50
55 56 56 55 55 58 60 61 60 58 58 61 64 64 62 61 60 59 59 59 59 59 59 58 58 59 59 60 60 60 60 60 60 61 61 61 61 62 62 61 60 60 59 59 58 56 54 54 53 52 52 52 53 53 53 53 52 51 51 50 50 50 49 49 47 46 46 47 47 47 47 48 48 48 48 47 47 48 48 47 47 47 48 49 49 48
Wind_Direction
261 261 262 264 265 265 265 265 266 266 266 267 266 266 267 268 267 267 266 265 265 266 265 265 266 268 270 271 272 270 269 269 269 269 268 266 265 262 258 253 251 254 257 260 266 269 270 271 271 272 272 271 272 272 272 272 272 272 271 271 271 271 270 270 270 271 271 271 270 269 268 267 266 265 263 262 260 258 256 255 253 251 250 249 247 246
260 260 262 263 263 263 264 264 264 265 265 265 266 266 267 266 266 268 267 265 266 265 265 265 265 266 267 269 270 268 268 269 270 270 271 270 268 267 265 261 258 257 258 261 262 266 269 270 271 272 272 272 273 272 271 272 272 271 270 270 270 269 269 269 269 269 269 269 268 268 267 265 264 263 261 259 258 256 255 253 251 250 248 247 246 244
259 260 262 262 262 263 263 264 264 264 264 264 264 264 264 264 265 266 265 265 264 263 264 265 263 264 265 266 267 268 269 269 269 269 270 271 270 269 268 267 264 259 256 257 258 262 267 270 271 272 272 272 272 271 271 272 272 271 269 269 269 268 268 268 268 267 266 265 265 266 265 264 263 261 260 258 256 254 253 251 250 248 247 245 244 244
260 261 262 262 262 263 263 263 263 263 263 263 263 262 261 262 262 264 266 266 264 264 265 264 263 263 263 263 265 266 266 266 266 267 268 269 269 269 270 270 268 265 262 262 262 265 269 270 271 271 271 271 270 271 272 273 272 271 270 269 269 269 269 268 267 266 264 262 262 263 263 262 261 259 257 255 253 252 251 250 249 247 246 245 243 243
261 261 261 261 262 262 262 263 263 263 263 263 262 261 260 261 262 264 266 266 264 264 264 262 262 262 261 262 262 262 263 264 264 265 265 265 266 267 268 268 267 267 267 268 270 270 269 270 271 270 269 269 270 271 271 272 271 269 269 270 270 271 270 268 266 266 265 263 260 260 259 259 258 256 254 252 250 249 248 247 246 245 244 243 242 241
262 261 260 261 261 261 262 263 263 263 263 262 262 261 261 262 263 264 265 264 263 262 261 261 261 262 263 263 263 262 262 263 263 263 263 262 263 263 263 264 265 266 266 268 270 269 267 269 270 270 270 270 270 271 271 271 269 267 268 270 271 271 271 270 268 266 266 264 261 258 256 254 252 251 250 249 248 246 245 245 244 243 241 241 241 240
262 262 261 261 262 262 262 262 263 263 263 263 263 262 262 263 263 264 264 263 263 262 261 262 262 263 264 263 262 263 262 262 262 263 262 262 262 262 263 262 262 263 263 263 264 263 265 269 271 271 271 271 271 272 272 270 269 268 268 269 270 270 271 271 269 268 267 265 262 260 258 253 249 247 245 244 243 243 242 242 242 242 241 240 239 239
262 262 263 263 263 263 263 263 263 263 262 262 262 263 263 262 262 262 262 261 261 261 262 263 263 263 264 264 263 263 263 263 263 263 263 263 262 263 264 264 264 264 263 262 262 263 266 268 270 270 271 272 272 271 271 270 269 269 267 267 268 269 270 270 270 269 269 266 264 262 261 257 252 248 244 241 239 240 241 241 242 243 243 242 240 238
262 262 262 263 263 263 264 264 264 264 263 261 261 263 263 262 262 261 260 260 260 261 262 263 263 262 262 263 264 264 264 264 264 264 265 265 264 264 265 266 266 266 264 263 264 265 266 267 268 269 269 270 270 269 269 269 269 268 266 266 267 267 268 269 268 268 268 267 265 263 261 259 257 253 249 246 243 242 242 243 244 245 245 245 243 241
261 261 261 262 263 263 264 265 265 265 264 263 262 263 263 263 262 260 260 260 260 262 263 262 261 261 260 261 264 265 264 265 264 264 265 265 265 265 265 265 265 266 265 264 263 264 265 266 267 267 268 268 268 268 267 267 267 266 264 264 264 265 266 266 265 265 265 265 264 263 261 259 257 255 254 252 250 248 247 247 247 248 248 248 247 245
261 262 262 263 264 265 265 265 265 265 265 264 263 263 262 262 261 261 260 260 261 262 261 260 259 259 260 260 262 263 263 264 264 263 263 265 266 266 265 264 264 264 264 264 264 264 264 265 265 266 267 267 268 267 266 265 265 264 263 262 261 262 262 263 263 262 262 262 261 261 261 259 257 255 254 252 251 251 250 250 250 250 250 251 251 250
263 264 264 264 264 265 265 264 265 265 264 263 263 262 260 260 260 261 261 261 261 261 259 258 258 259 260 261 262 263 262 262 263 264 264 264 265 265 265 265 265 265 265 264 264 264 265 265 266 266 266 266 266 266 266 264 263 262 261 260 259 259 259 260 260 260 260 260 259 258 258 259 258 257 256 254 253 252 251 251 251 252 252 252 252 252
264 263 262 262 262 263 263 263 263 263 262 262 263 262 260 260 260 260 260 260 259 259 258 258 260 261 260 261 262 264 264 263 264 265 264 264 264 264 264 264 264 264 265 265 265 265 265 265 266 266 266 266 265 264 264 263 262 261 260 259 259 258 258 259 259 259 259 259 258 258 258 258 258 258 257 257 256 256 255 254 253 252 252 251 251 251
264 263 262 262 262 262 262 262 262 262 262 263 263 261 260 261 261 260 259 259 258 259 259 259 261 262 262 262 264 265 266 265 264 264 264 264 264 264 264 265 264 265 265 266 267 267 266 266 267 267 267 266 265 265 264 263 262 261 260 260 259 259 259 259 259 259 259 259 258 258 258 258 257 257 257 256 257 257 257 256 256 254 253 252 251 250
265 264 264 263 262 262 263 262 262 261 262 261 260 259 259 260 261 260 258 259 259 260 261 261 261 262 262 262 262 262 263 265 264 264 264 263 264 264 264 264 265 265 266 266 267 268 268 268 269 268 268 268 267 266 266 264 263 262 261 260 260 260 259 259 258 259 259 259 258 257 257 257 257 257 256 256 255 255 256 256 256 256 255 254 253 251
265 265 265 264 263 262 262 262 261 261 261 260 258 257 258 258 258 259 258 258 259 261 263 263 261 261 261 260 259 260 261 263 264 264 264 264 264 264 264 264 264 264 265 265 266 266 267 268 268 269 269 269 268 268 267 266 265 264 263 262 261 260 259 258 258 257 257 257 256 256 256 256 256 256 256 256 256 255 255 255 255 255 255 255 255 254
267 267 266 266 266 265 263 261 261 260 260 260 258 257 257 257 258 258 258 258 258 260 262 262 261 261 261 260 259 260 261 262 264 264 265 265 265 264 264 264 264 263 263 264 264 264 265 266 266 267 267 267 267 267 267 266 265 265 264 263 262 261 260 260 259 258 257 256 255 255 255 255 255 255 255 256 256 256 255 255 254 254 254 254 254 254
267 268 267 267 267 266 264 262 260 259 259 258 258 257 256 257 258 258 258 258 258 259 259 261 261 260 261 261 261 262 262 262 263 264 265 265 265 265 265 264 264 263 263 263 263 263 264 264 264 264 264 264 265 265 265 265 265 265 264 264 263 262 262 261 260 260 259 258 257 256 255 255 255 254 254 254 255 255 255 254 254 254 254 254 254 254
266 267 268 267 265 264 263 262 260 259 258 257 256 257 257 257 258 259 259 258 259 259 259 260 260 260 261 263 263 263 263 263 263 264 264 265 265 265 265 265 264 264 264 264 264 263 263 263 264 263 263 263 263 263 263 264 264 264 264 264 263 262 262 262 261 261 260 260 259 257 256 256 256 256 255 254 254 254 254 254 254 253 253 254 253 253
264 265 266 265 264 263 262 261 260 259 257 256 255 256 257 258 258 259 259 258 258 259 259 259 260 261 261 262 263 263 264 265 264 264 265 265 265 266 266 266 266 266 265 265 265 264 264 263 263 263 263 263 264 263 263 263 263 263 263 262 262 262 262 262 262 262 261 260 259 258 258 257 258 258 257 256 255 255 254 254 253 253 253 253 253 254
262 262 262 262 262 263 262 261 260 258 257 257 257 256 257 258 258 258 259 259 258 258 258 259 260 261 262 263 264 264 264 265 266 266 265 265 266 266 266 266 266 267 266 266 266 265 265 264 264 263 263 264 264 264 264 264 264 264 264 263 263 262 262 261 261 261 261 261 260 259 259 258 258 258 258 258 257 256 255 254 253 253 253 253 253 253
261 260 260 260 260 260 261 260 259 258 257 257 258 258 258 258 259 259 259 260 259 258 259 260 260 262 264 265 265 265 265 265 266 267 267 267 267 266 266 266 266 267 266 266 266 266 266 265 265 264 264 264 264 264 264 265 265 265 265 265 265 264 262 262 261 261 261 262 262 261 260 259 258 258 257 257 256 256 256 255 254 253 253 253 252 252
260 259 258 259 259 259 260 260 260 259 258 257 257 257 257 258 259 260 260 260 261 261 262 262 262 263 264 265 265 265 266 266 267 268 268 268 268 266 266 266 266 267 267 267 267 266 266 266 265 265 265 264 264 264 264 264 265 265 264 264 264 264 263 262 261 261 261 261 262 261 261 260 259 258 257 257 257 256 255 255 255 254 253 253 252 252
259 259 258 259 259 259 259 259 259 260 259 258 257 257 257 258 259 259 259 260 261 262 263 263 263 263 263 263 264 264 264 265 266 267 267 267 267 267 267 266 266 266 266 267 267 267 266 266 266 266 265 265 264 264 264 264 263 264 263 263 262 262 261 261 260 260 260 260 260 260 260 260 261 260 259 258 257 257 256 255 254 254 254 253 253 253
257 258 258 258 259 259 259 260 259 259 259 258 258 258 258 258 259 259 260 260 261 263 264 263 264 263 261 260 261 263 263 264 265 265 265 265 265 267 267 267 267 266 266 266 266 266 266 265 264 264 264 264 264 263 263 263 263 262 262 262 262 261 260 259 258 258 258 258 259 259 259 259 260 260 260 259 258 257 257 256 256 255 254 254 253 253
256 257 257 257 257 258 259 260 259 258 259 259 259 260 259 259 260 261 262 263 263 263 263 264 264 264 262 260 259 260 262 262 263 263 264 264 265 266 267 268 268 268 267 267 267 267 267 266 265 264 263 262 262 261 261 261 261 261 260 260 260 260 259 259 258 258 257 257 257 258 259 259 261 263 261 258 257 257 256 256 256 256 256 255 255 255
256 256 257 256 256 257 257 258 258 259 260 261 260 260 260 260 262 263 264 265 265 264 264 266 265 264 264 264 262 262 262 263 262 263 264 264 264 265 266 266 267 267 267 267 267 267 267 267 267 266 264 263 262 261 260 259 259 258 259 259 259 259 258 258 258 258 258 258 258 257 257 256 255 257 258 258 258 260 260 259 257 257 259 260 259 258
256 256 256 256 255 256 256 257 258 259 260 260 260 261 261 261 262 264 265 266 266 265 266 266 264 264 266 268 267 265 264 265 265 265 265 265 264 264 264 265 265 266 267 267 267 267 267 267 267 267 267 266 265 264 263 262 261 260 259 259 258 258 259 259 259 259 259 259 259 258 257 255 253 253 256 258 257 256 257 260 260 261 264 264 262 260
257 256 256 256 256 255 256 257 258 259 259 259 260 261 262 263 263 264 265 266 266 265 263 263 264 266 268 269 269 268 267 267 267 266 265 264 264 265 265 266 266 266 266 266 267 268 268 268 268 268 268 268 267 267 266 265 264 263 262 261 260 259 259 259 259 259 260 260 260 260 259 258 257 258 258 258 255 251 249 253 256 253 252 254 256 258
259 258 257 257 256 256 256 256 257 258 259 259 259 261 262 263 263 264 264 264 264 264 263 262 264 266 267 267 267 269 270 269 268 267 267 266 265 265 266 267 268 268 268 268 268 268 268 268 268 269 269 269 268 268 267 266 266 265 264 263 262 261 261 260 260 260 260 260 260 261 261 260 260 261 261 260 259 256 254 253 252 247 244 247 250 250
260 260 259 258 258 257 257 257 257 257 258 259 260 261 262 262 262 262 261 261 261 263 264 264 264 265 265 264 265 267 269 269 268 267 267 267 266 265 265 265 266 267 267 268 269 269 268 268 268 268 268 268 268 268 268 267 266 266 265 265 264 263 263 263 262 262 262 262 262 262 262 262 262 262 262 261 261 260 259 257 255 252 250 250 250 248
262 261 261 261 260 259 258 258 258 258 259 260 261 260 260 260 260 261 260 260 261 262 262 263 264 263 262 262 264 266 265 266 267 267 267 268 268 266 265 265 264 264 264 266 268 268 269 269 269 268 268 267 267 267 268 268 267 267 267 266 266 265 265 264 264 263 263 262 262 262 262 263 263 263 263 262 262 262 261 261 259 257 256 255 253 252
263 263 263 263 262 260 260 260 260 260 261 263 261 259 258 259 260 260 260 261 261 261 262 263 263 262 260 261 263 264 264 264 265 266 267 268 268 268 267 266 265 264 264 264 265 267 268 268 268 267 267 267 267 267 267 267 267 268 268 268 267 267 266 266 265 265 264 263 262 262 262 262 262 262 263 263 263 263 262 262 261 260 259 258 257 256
263 264 264 264 263 262 262 262 262 262 263 263 261 259 260 261 261 260 260 261 261 262 262 261 261 260 261 261 261 262 263 265 266 267 267 267 268 268 268 268 267 267 266 265 265 267 267 267 267 267 267 267 267 267 267 267 267 267 267 267 268 267 267 267 267 267 266 265 264 263 262 261 261 261 261 262 262 262 262 262 262 261 261 260 260 259
263 263 263 264 264 263 263 263 264 264 263 263 261 261 261 262 261 260 260 261 261 261 261 260 260 260 260 261 261 262 264 266 267 268 268 268 268 268 268 268 269 269 269 268 268 268 268 268 268 268 268 268 267 267 267 266 266 266 266 266 267 267 267 267 267 267 267 267 266 265 264 263 262 262 261 261 261 261 261 261 262 262 262 261 261 261
264 263 262 263 264 264 263 263 264 263 262 262 263 263 261 261 261 261 261 261 261 262 262 261 261 261 261 262 263 264 265 267 268 269 269 269 270 271 271 271 271 271 271 270 269 268 268 268 268 269 269 268 268 268 267 267 266 266 266 266 266 266 267 267 267 267 267 267 267 267 266 266 265 264 264 263 263 262 262 262 262 262 262 262 262 262
263 264 263 263 264 265 264 264 264 263 262 262 262 262 262 262 263 263 262 262 262 262 263 264 264 264 264 265 266 266 267 268 268 268 269 270 271 272 273 274 273 273 272 271 270 269 268 268 268 268 268 268 268 268 268 268 267 267 266 266 266 266 266 266 266 266 266 266 267 267 267 267 267 266 266 265 265 265 264 263 263 263 263 263 263 263
263 264 264 264 264 265 266 266 265 265 264 263 263 263 263 264 264 265 264 264 264 264 264 265 266 266 267 267 268 268 269 269 269 268 269 270 272 273 274 274 274 273 272 271 271 270 270 270 269 269 268 268 268 268 268 268 267 267 267 267 267 266 266 266 266 266 266 266 266 266 267 267 267 267 267 266 266 266 265 265 264 263 263 263 263 263
264 263 264 265 265 265 265 266 266 266 265 265 265 265 265 265 266 266 265 265 265 266 266 266 267 267 267 268 268 269 268 268 268 269 270 271 272 273 273 273 273 273 273 273 272 272 272 271 270 269 269 268 268 267 267 267 267 267 267 267 267 267 267 266 266 266 266 265 265 266 266 266 266 266 266 266 265 265 265 265 264 263 263 263 263 262
266 266 265 265 266 266 266 265 265 265 265 265 266 266 266 265 265 265 266 266 266 266 266 266 266 267 267 267 268 268 268 268 268 270 271 272 272 272 272 272 273 274 274 274 273 273 272 271 270 270 269 267 267 266 266 265 265 265 265 265 265 265 266 266 266 265 265 265 265 265 265 265 265 265 264 264 263 263 263 263 262 262 262 262 262 262
265 266 266 266 267 267 267 266 266 266 266 266 266 267 267 266 265 266 266 267 267 267 266 266 266 266 267 267 267 268 268 269 270 272 273 272 272 272 272 272 273 273 273 273 273 272 272 271 270 269 268 267 266 265 265 264 264 264 264 263 263 263 264 264 264 264 265 265 265 265 264 264 264 263 263 263 262 262 261 261 261 261 261 261 261 261
264 265 266 267 268 267 268 268 268 268 268 267 267 267 267 267 267 268 268 268 268 267 267 267 267 267 268 268 269 269 269 270 272 272 273 272 272 271 271 271 271 271 271 271 271 271 270 270 269 269 268 267 266 266 265 265 264 263 263 262 262 262 262 262 262 263 263 264 264 264 265 264 264 263 263 263 262 262 261 261 260 260 260 260 260 260
266 266 266 267 267 267 268 269 269 269 269 268 267 267 267 268 269 270 269 269 269 268 269 269 269 270 270 270 270 270 270 270 271 271 272 272 271 271 270 270 270 270 270 270 269 269 269 269 269 268 268 268 267 267 266 265 264 263 262 262 261 261 261 261 262 262 263 263 264 264 264 264 264 263 263 263 263 262 262 261 261 261 261 260 260 260
266 266 267 267 267 267 267 268 269 269 269 269 268 268 268 268 269 269 269 269 269 270 270 270 270 271 270 270 269 269 270 270 270 271 271 271 271 271 270 269 269 269 269 269 268 268 267 267 267 268 268 268 267 267 266 265 264 264 263 262 261 261 261 261 262 262 263 263 262 262 262 262 262 262 262 262 262 261 261 262 261 261 261 261 261 261
266 266 267 268 268 267 267 267 268 269 269 269 269 269 269 269 268 268 268 269 270 271 271 271 270 270 270 269 269 268 269 269 269 269 270 270 270 270 270 269 268 268 268 268 267 267 267 267 267 266 266 267 267 266 266 266 265 264 264 263 262 262 262 262 263 262 262 262 261 260 260 260 261 261 261 261 261 261 262 262 262 262 262 262 262 262
266 267 267 267 267 268 268 268 268 268 268 269 269 269 269 269 268 268 268 269 270 271 271 271 270 269 268 268 268 267 267 267 267 268 268 268 269 269 269 269 268 268 267 267 267 267 267 266 266 266 266 266 266 266 265 265 265 265 264 264 263 263 263 263 263 262 261 261 260 260 260 260 260 260 261 261 261 262 262 262 262 262 262 262 262 262
266 267 268 267 268 269 270 269 269 269 269 270 270 270 269 267 267 268 268 268 268 269 269 270 269 268 268 268 268 267 266 266 266 266 266 267 267 268 268 268 268 267 267 266 266 267 267 266 266 267 266 266 266 266 266 266 266 265 264 263 263 263 262 262 262 262 261 261 261 261 261 261 261 261 261 261 261 261 261 261 262 262 262 262 262 262
267 267 267 268 270 271 271 270 270 270 271 271 271 271 270 268 268 268 268 268 268 268 267 268 268 268 268 268 268 267 266 265 265 265 265 266 266 267 267 268 268 268 267 267 267 266 266 267 267 266 266 266 266 266 266 266 265 265 264 263 263 262 261 261 261 261 261 261 261 261 262 262 262 262 262 261 261 260 260 260 261 261 261 261 261 261
268 268 268 270 270 271 270 271 271 272 272 271 270 270 270 271 270 269 269 269 269 268 268 268 268 268 268 267 267 267 266 266 266 266 266 267 267 267 267 267 267 267 268 268 267 267 266 266 265 265 265 265 265 265 265 264 264 264 264 263 263 262 261 261 260 260 260 261 261 262 262 262 262 261 261 261 260 260 260 260 260 260 260 260 260 260
270 270 270 271 271 271 271 272 272 272 272 272 271 271 271 272 272 272 272 271 270 270 269 268 268 268 268 267 267 267 267 267 267 267 266 266 266 266 266 266 266 267 267 267 267 267 266 265 264 263 262 262 262 262 262 263 263 263 263 263 263 263 262 262 261 260 260 261 261 261 261 261 261 260 260 260 260 260 259 259 259 259 259 259 258 258
272 272 272 272 272 272 273 273 273 273 272 272 273 274 274 274 274 274 274 273 272 271 270 269 268 268 268 268 268 268 267 267 266 266 265 265 265 265 265 266 266 266 266 267 267 267 266 265 265 264 263 262 260 260 260 261 261 262 262 262 263 263 263 262 261 261 261 261 261 261 260 260 259 259 259 258 258 258 258 258 258 258 258 258 259 258
Height
10600 10601 10602 10603 10603 10603 10602 10603 10603 10603 10604 10604 10605 10605 10604 10605 10602 10604 10608 10607 10606 10607 10607 10608 10605 10603 10603 10603 10605 10606 10606 10606 10607 10607 10609 10612 10614 10617 10621 10624 10627 10626 10624 10623 10619 10617 10617 10616 10615 10615 10614 10614 10614 10614 10614 10614 10613 10613 10611 10610 10610 10610 10610 10611 10611 10611 10611 10612 10613 10614 10615 10615 10616 10617 10618 10619 10620 10621 10622 10624 10625 10626 10627 10628 10630 10631
10595 10596 10598 10599 10598 10598 10598 10599 10599 10599 10600 10600 10600 10601 10601 10600 10598 10599 10602 10603 10603 10603 10602 10604 10603 10600 10601 10600 10600 10601 10602 10602 10603 10603 10604 10606 10607 10609 10612 10616 10622 10623 10621 10618 10614 10612 10613 10612 10611 10611 10610 10610 10610 10610 10610 10610 10610 10609 10607 10606 10606 10606 10606 10607 10607 10607 10607 10607 10608 10609 10610 10611 10611 10612 10613 10614 10615 10616 10617 10618 10620 10621 10622 10624 10625 10626
10589 10592 10595 10593 10592 10593 10594 10594 10594 10594 10595 10595 10596 10597 10596 10595 10594 10594 10596 10599 10600 10598 10598 10601 10599 10597 10597 10597 10596 10596 10597 10598 10598 10599 10599 10600 10601 10602 10604 10607 10612 10616 10615 10613 10610 10609 10608 10607 10607 10607 10606 10607 10606 10606 10606 10607 10606 10605 10603 10602 10602 10602 10603 10603 10603 10604 10604 10604 10603 10604 10605 10606 10607 10608 10609 10610 10610 10611 10613 10614 10615 10616 10618 10619 10620 10622
10585 10589 10589 10587 10587 10589 10588 10589 10589 10590 10590 10591 10591 10592 10591 10590 10590 10589 10591 10595 10594 10593 10595 10596 10594 10594 10593 10592 10593 10593 10592 10593 10594 10595 10595 10595 10595 10595 10597 10599 10602 10605 10607 10605 10603 10603 10602 10602 10603 10603 10602 10602 10602 10602 10603 10603 10603 10601 10599 10599 10598 10598 10599 10600 10600 10600 10600 10601 10600 10601 10602 10602 10604 10604 10605 10606 10606 10607 10609 10610 10611 10612 10613 10615 10616 10618
10581 10584 10582 10581 10583 10583 10582 10583 10584 10585 10586 10586 10585 10586 10585 10586 10586 10585 10587 10590 10588 10588 10590 10590 10589 10588 10588 10588 10588 10588 10587 10587 10589 10590 10591 10591 10590 10590 10591 10592 10594 10597 10598 10596 10595 10597 10597 10597 10598 10598 10598 10598 10598 10598 10599 10600 10600 10598 10596 10595 10595 10595 10596 10596 10596 10596 10597 10597 10597 10598 10598 10599 10600 10601 10602 10602 10603 10604 10605 10606 10607 10608 10609 10611 10612 10614
10576 10577 10576 10577 10577 10577 10577 10578 10579 10580 10581 10581 10580 10580 10580 10581 10582 10581 10583 10584 10582 10583 10583 10583 10585 10583 10583 10584 10582 10582 10583 10583 10583 10584 10585 10586 10585 10585 10586 10587 10588 10590 10593 10591 10591 10592 10591 10591 10592 10593 10593 10593 10593 10594 10595 10596 10596 10595 10593 10592 10592 10592 10592 10593 10593 10593 10593 10594 10594 10594 10595 10596 10597 10597 10598 10599 10599 10600 10601 10602 10603 10604 10606 10607 10608 10610
10571 10571 10570 10571 10571 10571 10573 10573 10574 10574 10575 10576 10574 10574 10576 10577 10577 10577 10577 10578 10576 10577 10577 10578 10580 10579 10579 10578 10576 10576 10578 10577 10578 10579 10579 10580 10580 10580 10581 10582 10583 10585 10588 10588 10589 10589 10587 10586 10587 10587 10588 10588 10589 10590 10591 10592 10592 10592 10591 10589 10589 10589 10589 10589 10589 10589 10590 10590 10590 10591 10592 10593 10594 10594 10595 10595 10596 10597 10598 10599 10600 10601 10602 10603 10605 10606
10565 10565 10565 10566 10566 10566 10567 10569 10570 10569 10571 10572 10569 10569 10572 10572 10572 10572 10572 10572 10571 10571 10573 10573 10574 10575 10574 10571 10569 10571 10572 10571 10573 10573 10574 10575 10575 10576 10576 10576 10577 10580 10584 10584 10584 10585 10583 10582 10581 10581 10582 10583 10584 10585 10586 10586 10588 10589 10588 10586 10586 10585 10585 10586 10586 10585 10586 10587 10587 10588 10589 10589 10590 10591 10592 10592 10593 10594 10595 10595 10596 10598 10599 10600 10602 10603
10559 10560 10560 10561 10561 10561 10562 10563 10564 10564 10566 10567 10565 10565 10566 10566 10567 10567 10566 10567 10566 10566 10569 10569 10568 10570 10569 10564 10563 10566 10566 10565 10567 10567 10567 10568 10570 10571 10571 10571 10570 10573 10576 10577 10577 10578 10577 10578 10577 10577 10577 10578 10579 10580 10581 10581 10583 10585 10584 10583 10583 10582 10582 10582 10582 10582 10582 10583 10584 10584 10585 10586 10587 10587 10588 10589 10590 10591 10592 10592 10593 10594 10595 10597 10598 10599
10552 10554 10556 10556 10556 10556 10558 10558 10559 10560 10560 10561 10561 10561 10561 10561 10561 10562 10562 10561 10561 10563 10565 10564 10563 10564 10564 10560 10558 10560 10560 10559 10560 10562 10562 10562 10563 10565 10566 10565 10565 10566 10568 10569 10570 10570 10571 10571 10571 10572 10572 10572 10573 10574 10576 10577 10577 10579 10580 10579 10578 10579 10578 10578 10579 10579 10579 10579 10580 10580 10581 10582 10583 10584 10584 10586 10587 10588 10588 10589 10590 10591 10592 10593 10594 10596
10547 10550 10551 10552 10551 10552 10553 10554 10553 10554 10555 10555 10556 10557 10556 10555 10555 10556 10557 10556 10556 10559 10560 10558 10557 10558 10559 10556 10553 10554 10555 10553 10554 10557 10557 10557 10558 10559 10559 10559 10559 10559 10560 10561 10563 10563 10564 10564 10565 10566 10566 10567 10567 10568 10570 10571 10572 10573 10574 10574 10573 10574 10574 10574 10574 10575 10575 10576 10576 10576 10577 10578 10579 10579 10580 10581 10582 10583 10584 10585 10586 10587 10588 10589 10590 10592
10543 10545 10546 10547 10546 10547 10548 10548 10548 10549 10549 10549 10551 10552 10550 10548 10550 10551 10552 10551 10552 10553 10553 10552 10551 10554 10554 10551 10547 10547 10549 10549 10549 10551 10552 10553 10553 10554 10554 10553 10554 10554 10553 10555 10556 10557 10557 10558 10558 10559 10560 10561 10562 10562 10563 10565 10566 10567 10568 10568 10568 10569 10569 10569 10569 10570 10570 10572 10572 10572 10573 10574 10575 10575 10576 10577 10578 10579 10580 10581 10582 10583 10584 10585 10586 10587
10538 10538 10540 10541 10541 10542 10542 10543 10543 10543 10542 10543 10546 10546 10543 10542 10544 10547 10546 10546 10547 10546 10546 10547 10547 10550 10549 10545 10542 10542 10542 10544 10546 10546 10546 10548 10548 10549 10549 10549 10549 10548 10548 10549 10550 10550 10551 10551 10552 10553 10554 10555 10556 10555 10557 10559 10560 10561 10561 10562 10563 10563 10564 10564 10564 10564 10565 10566 10567 10568 10568 10569 10570 10571 10572 10572 10573 10574 10575 10576 10577 10578 10579 10580 10581 10582
10531 10530 10532 10534 10535 10536 10537 10538 10538 10536 10535 10539 10540 10538 10536 10535 10537 10542 10541 10539 10539 10538 10539 10543 10544 10544 10543 10539 10539 10537 10535 10536 10539 10540 10541 10542 10543 10543 10543 10543 10543 10542 10543 10543 10544 10544 10545 10545 10546 10547 10548 10549 10549 10549 10551 10553 10554 10555 10556 10556 10557 10558 10558 10559 10559 10559 10559 10561 10562 10563 10564 10564 10565 10566 10567 10568 10568 10569 10570 10571 10572 10573 10574 10575 10576 10578
10523 10523 10525 10527 10529 10530 10531 10532 10532 10530 10530 10534 10534 10531 10530 10528 10529 10534 10535 10532 10532 10532 10533 10538 10539 10538 10537 10535 10533 10531 10529 10529 10530 10532 10534 10535 10537 10538 10538 10537 10537 10537 10538 10538 10538 10538 10538 10538 10539 10540 10541 10542 10543 10543 10545 10547 10548 10548 10549 10550 10551 10552 10553 10553 10553 10553 10554 10555 10556 10557 10558 10559 10560 10561 10561 10562 10563 10565 10566 10567 10568 10569 10570 10571 10572 10573
10514 10515 10517 10519 10522 10524 10524 10525 10525 10524 10525 10526 10527 10526 10523 10521 10521 10525 10527 10526 10526 10526 10528 10531 10532 10531 10529 10527 10525 10524 10523 10523 10523 10525 10527 10529 10531 10531 10532 10532 10532 10532 10532 10532 10532 10532 10532 10532 10532 10533 10534 10535 10535 10537 10538 10540 10541 10542 10543 10544 10545 10546 10547 10547 10548 10548 10549 10550 10550 10551 10552 10553 10554 10555 10556 10557 10558 10559 10561 10562 10563 10564 10565 10566 10567 10568
10506 10507 10510 10511 10513 10516 10517 10518 10518 10518 10518 10518 10519 10519 10516 10513 10514 10518 10521 10520 10520 10521 10522 10522 10523 10524 10520 10517 10518 10518 10517 10517 10517 10518 10520 10522 10524 10525 10525 10525 10526 10526 10525 10526 10527 10527 10527 10527 10527 10527 10527 10527 10528 10529 10530 10532 10533 10535 10536 10538 10539 10540 10540 10541 10542 10543 10543 10544 10544 10545 10546 10547 10548 10549 10550 10551 10552 10554 10555 10557 10557 10558 10559 10560 10561 10562
10500 10499 10501 10504 10506 10506 10507 10510 10511 10511 10512 10512 10511 10511 10509 10507 10508 10511 10514 10514 10514 10516 10517 10515 10515 10517 10511 10508 10511 10513 10511 10511 10511 10511 10513 10515 10516 10517 10517 10518 10518 10518 10519 10520 10521 10521 10521 10521 10521 10521 10521 10521 10521 10522 10523 10524 10526 10527 10529 10530 10532 10533 10534 10534 10536 10537 10537 10538 10539 10540 10540 10541 10542 10543 10544 10545 10546 10548 10549 10551 10552 10553 10553 10554 10555 10556
10494 10492 10493 10496 10498 10498 10499 10502 10503 10504 10504 10504 10504 10503 10501 10501 10502 10504 10506 10508 10508 10509 10511 10508 10507 10509 10505 10502 10506 10506 10503 10504 10505 10504 10506 10508 10509 10510 10509 10509 10510 10511 10511 10512 10513 10514 10514 10514 10514 10514 10514 10514 10515 10516 10516 10517 10519 10520 10521 10523 10524 10525 10526 10527 10528 10529 10530 10531 10532 10533 10534 10535 10536 10537 10538 10539 10540 10542 10543 10545 10546 10547 10547 10548 10549 10550
10487 10487 10488 10488 10489 10491 10492 10494 10497 10497 10496 10496 10497 10496 10495 10495 10497 10498 10499 10500 10502 10502 10502 10501 10501 10502 10499 10496 10499 10498 10496 10496 10497 10497 10499 10500 10501 10502 10501 10501 10502 10502 10504 10504 10505 10506 10507 10507 10507 10506 10506 10507 10508 10509 10509 10510 10511 10513 10514 10515 10517 10518 10519 10520 10521 10521 10522 10522 10524 10525 10527 10529 10530 10530 10531 10533 10534 10535 10536 10538 10539 10540 10541 10542 10542 10543
10480 10481 10481 10481 10482 10483 10483 10487 10489 10488 10488 10489 10489 10490 10489 10488 10489 10491 10492 10492 10495 10496 10493 10494 10496 10494 10491 10492 10491 10490 10490 10490 10488 10490 10491 10492 10494 10494 10493 10494 10494 10494 10495 10496 10497 10498 10498 10499 10500 10499 10500 10501 10501 10501 10502 10503 10504 10505 10507 10508 10509 10511 10512 10512 10513 10513 10513 10514 10515 10517 10520 10523 10523 10523 10524 10525 10527 10528 10529 10531 10532 10533 10534 10534 10536 10537
10474 10474 10474 10474 10476 10477 10475 10479 10481 10480 10481 10482 10483 10483 10482 10481 10482 10484 10485 10484 10486 10488 10486 10488 10490 10487 10485 10486 10483 10480 10483 10483 10481 10482 10484 10485 10486 10486 10485 10486 10486 10486 10487 10488 10489 10490 10490 10491 10491 10492 10492 10494 10494 10494 10495 10496 10496 10498 10499 10500 10502 10503 10504 10505 10506 10506 10506 10506 10507 10509 10512 10515 10516 10516 10517 10517 10519 10520 10523 10524 10525 10526 10527 10527 10529 10530
10466 10465 10467 10467 10469 10470 10469 10472 10473 10471 10473 10475 10476 10476 10474 10475 10476 10477 10478 10477 10477 10480 10480 10481 10482 10481 10480 10477 10473 10473 10475 10474 10474 10475 10477 10478 10477 10476 10478 10478 10478 10479 10479 10480 10481 10482 10483 10483 10483 10484 10485 10486 10487 10487 10488 10489 10489 10490 10492 10493 10494 10495 10496 10498 10498 10498 10499 10499 10499 10501 10503 10505 10507 10508 10508 10509 10511 10513 10516 10517 10517 10518 10519 10519 10521 10522
10457 10456 10459 10460 10461 10462 10462 10464 10466 10463 10463 10466 10468 10468 10467 10469 10469 10468 10470 10469 10470 10473 10472 10472 10474 10474 10473 10469 10465 10467 10467 10466 10467 10468 10469 10470 10468 10468 10470 10471 10471 10472 10472 10472 10473 10474 10475 10476 10476 10476 10477 10478 10479 10480 10480 10481 10482 10482 10483 10485 10486 10487 10488 10489 10490 10490 10491 10491 10491 10493 10496 10498 10498 10499 10500 10501 10503 10505 10507 10509 10509 10509 10510 10512 10514 10515
10450 10447 10451 10454 10454 10454 10454 10456 10458 10454 10452 10456 10460 10459 10460 10462 10460 10460 10462 10461 10464 10467 10463 10463 10468 10465 10464 10464 10460 10460 10460 10460 10460 10460 10461 10461 10461 10462 10463 10463 10463 10465 10465 10465 10466 10466 10467 10468 10468 10469 10469 10470 10471 10472 10472 10473 10474 10475 10475 10477 10478 10479 10480 10480 10481 10482 10483 10483 10484 10485 10489 10491 10490 10491 10492 10493 10495 10498 10500 10500 10500 10501 10502 10505 10507 10509
10442 10440 10443 10446 10445 10447 10447 10447 10447 10445 10444 10448 10451 10451 10453 10453 10451 10452 10454 10454 10458 10460 10454 10456 10461 10455 10451 10454 10455 10453 10453 10453 10454 10453 10453 10453 10455 10455 10456 10456 10456 10456 10457 10458 10458 10458 10458 10459 10460 10461 10462 10462 10463 10464 10465 10465 10466 10467 10468 10469 10470 10471 10472 10472 10473 10474 10474 10476 10477 10479 10482 10485 10486 10485 10485 10485 10487 10490 10492 10492 10493 10494 10495 10498 10501 10503
10434 10432 10435 10437 10438 10439 10439 10438 10437 10436 10437 10441 10443 10443 10444 10445 10443 10443 10445 10446 10448 10448 10448 10451 10450 10444 10441 10444 10447 10447 10445 10445 10447 10447 10445 10446 10448 10449 10449 10448 10448 10448 10449 10449 10450 10450 10450 10450 10451 10451 10453 10454 10455 10456 10457 10457 10458 10459 10460 10461 10461 10462 10463 10464 10465 10465 10466 10468 10469 10472 10475 10479 10480 10479 10477 10478 10481 10484 10485 10486 10487 10489 10491 10494 10495 10496
10424 10425 10427 10427 10429 10430 10430 10430 10430 10428 10430 10433 10434 10434 10435 10436 10437 10436 10437 10439 10437 10437 10443 10442 10437 10436 10436 10435 10436 10437 10436 10438 10439 10439 10439 10439 10440 10442 10441 10441 10442 10442 10441 10441 10442 10442 10442 10442 10443 10443 10444 10445 10447 10447 10448 10449 10451 10451 10452 10453 10454 10454 10455 10456 10457 10457 10458 10460 10461 10463 10466 10469 10470 10469 10469 10472 10476 10479 10481 10481 10483 10486 10489 10489 10488 10489
10414 10417 10418 10418 10420 10422 10422 10422 10422 10420 10421 10424 10426 10427 10426 10427 10429 10429 10430 10431 10427 10428 10434 10433 10428 10431 10433 10429 10424 10424 10427 10431 10431 10429 10430 10431 10432 10434 10434 10433 10434 10435 10434 10436 10436 10436 10436 10435 10435 10435 10436 10436 10437 10438 10440 10441 10442 10443 10444 10445 10445 10446 10447 10448 10449 10450 10451 10452 10453 10454 10456 10458 10459 10459 10460 10463 10466 10470 10472 10474 10477 10481 10483 10480 10478 10481
10406 10408 10410 10410 10411 10414 10415 10414 10414 10412 10412 10415 10419 10420 10419 10420 10421 10422 10423 10422 10417 10418 10424 10424 10423 10427 10427 10422 10417 10415 10417 10421 10421 10420 10421 10421 10424 10427 10427 10426 10426 10426 10427 10429 10429 10429 10429 10428 10428 10428 10428 10427 10428 10429 10430 10432 10433 10433 10434 10435 10436 10437 10438 10439 10440 10441 10443 10444 10445 10446 10446 10448 10449 10449 10450 10452 10455 10458 10461 10464 10467 10470 10471 10468 10467 10470
10399 10399 10401 10401 10402 10407 10407 10405 10404 10403 10403 10408 10413 10414 10412 10412 10412 10413 10414 10412 10410 10411 10414 10414 10418 10423 10420 10413 10411 10411 10412 10411 10411 10412 10411 10411 10414 10418 10419 10419 10419 10419 10420 10421 10421 10421 10421 10421 10421 10421 10420 10419 10419 10419 10420 10421 10423 10424 10424 10425 10426 10427 10428 10430 10431 10432 10433 10435 10436 10437 10437 10439 10440 10440 10441 10442 10444 10446 10448 10451 10454 10457 10458 10458 10458 10459
10391 10392 10393 10393 10395 10399 10398 10395 10395 10395 10397 10404 10407 10407 10404 10402 10403 10403 10403 10404 10404 10404 10405 10405 10411 10415 10410 10405 10406 10407 10406 10405 10403 10402 10402 10403 10404 10407 10409 10410 10410 10411 10413 10414 10414 10412 10412 10413 10413 10413 10411 10410 10410 10410 10411 10411 10412 10413 10414 10415 10416 10417 10418 10419 10421 10422 10424 10425 10426 10427 10428 10429 10430 10430 10431 10432 10433 10435 10436 10438 10441 10443 10444 10445 10447 10447
10383 10384 10386 10384 10386 10391 10389 10385 10386 10389 10394 10398 10398 10396 10394 10394 10395 10394 10394 10395 10395 10395 10397 10399 10403 10403 10399 10400 10402 10399 10398 10398 10395 10393 10394 10394 10394 10396 10399 10399 10399 10402 10406 10408 10406 10405 10405 10404 10404 10403 10401 10400 10401 10402 10403 10403 10403 10404 10404 10404 10405 10407 10407 10408 10409 10411 10413 10414 10415 10417 10418 10419 10420 10420 10420 10421 10423 10424 10425 10426 10427 10429 10431 10432 10433 10435
10376 10377 10378 10375 10376 10382 10381 10376 10377 10385 10390 10389 10386 10386 10386 10386 10386 10384 10385 10386 10385 10386 10389 10391 10393 10392 10391 10394 10395 10392 10391 10390 10386 10384 10385 10384 10384 10387 10389 10387 10388 10392 10396 10398 10398 10398 10397 10394 10392 10392 10392 10392 10393 10393 10393 10394 10395 10395 10396 10395 10395 10396 10396 10397 10398 10399 10400 10402 10404 10406 10407 10409 10409 10410 10410 10411 10412 10413 10414 10415 10415 10417 10418 10419 10421 10423
10369 10370 10370 10367 10367 10373 10373 10368 10371 10380 10382 10376 10374 10378 10380 10377 10374 10374 10376 10377 10377 10378 10379 10381 10384 10383 10383 10385 10385 10384 10384 10382 10377 10374 10373 10372 10374 10377 10378 10377 10378 10382 10385 10386 10388 10388 10387 10383 10382 10383 10383 10383 10383 10383 10383 10385 10386 10386 10386 10386 10386 10386 10387 10387 10388 10388 10388 10390 10391 10393 10395 10397 10398 10399 10400 10401 10402 10403 10404 10404 10404 10405 10406 10408 10409 10411
10361 10361 10362 10360 10359 10363 10364 10361 10364 10370 10371 10367 10366 10369 10370 10367 10364 10365 10367 10368 10368 10369 10369 10371 10374 10374 10373 10375 10376 10376 10375 10372 10368 10363 10360 10360 10363 10366 10367 10366 10368 10372 10374 10375 10376 10377 10375 10374 10373 10373 10373 10372 10372 10372 10373 10375 10376 10376 10376 10376 10377 10377 10377 10377 10377 10377 10377 10378 10379 10380 10382 10384 10386 10388 10389 10390 10391 10392 10393 10393 10394 10394 10394 10396 10397 10399
10353 10352 10352 10353 10353 10353 10354 10354 10356 10360 10360 10359 10359 10360 10360 10357 10355 10356 10358 10359 10360 10360 10360 10361 10363 10363 10363 10364 10365 10366 10364 10361 10356 10349 10347 10351 10355 10357 10357 10355 10356 10360 10362 10362 10364 10364 10364 10364 10364 10364 10363 10362 10362 10362 10362 10363 10365 10365 10365 10366 10366 10366 10367 10367 10367 10366 10366 10367 10368 10369 10370 10372 10373 10376 10378 10379 10379 10380 10381 10382 10383 10383 10383 10384 10385 10387
10345 10344 10342 10344 10346 10345 10345 10345 10347 10350 10350 10350 10350 10351 10350 10349 10346 10346 10347 10348 10349 10350 10352 10352 10351 10352 10352 10353 10354 10355 10352 10348 10341 10335 10337 10344 10348 10350 10348 10343 10342 10345 10348 10350 10351 10352 10353 10354 10353 10353 10354 10353 10352 10352 10353 10353 10354 10354 10354 10355 10355 10355 10356 10356 10356 10356 10356 10357 10359 10360 10360 10361 10362 10364 10366 10367 10368 10368 10369 10370 10371 10371 10371 10372 10373 10374
10334 10335 10333 10335 10337 10337 10336 10336 10337 10339 10339 10340 10341 10342 10341 10340 10337 10335 10335 10336 10339 10341 10343 10343 10340 10339 10341 10343 10343 10343 10340 10334 10325 10321 10329 10339 10340 10340 10337 10332 10330 10332 10335 10337 10339 10340 10342 10342 10341 10341 10343 10343 10342 10342 10342 10343 10343 10343 10344 10344 10344 10344 10344 10344 10344 10344 10345 10347 10349 10349 10350 10351 10352 10354 10355 10355 10356 10356 10357 10358 10358 10358 10359 10360 10362 10363
10322 10323 10324 10326 10327 10327 10325 10326 10327 10326 10327 10331 10333 10331 10331 10329 10327 10325 10323 10325 10329 10331 10332 10332 10330 10328 10330 10332 10333 10331 10327 10319 10312 10313 10322 10329 10329 10328 10325 10322 10321 10322 10322 10322 10325 10328 10328 10327 10328 10329 10330 10330 10330 10330 10331 10331 10332 10333 10333 10333 10333 10333 10332 10331 10330 10331 10333 10335 10337 10338 10339 10341 10342 10342 10342 10343 10344 10344 10345 10346 10345 10346 10347 10348 10350 10350
10314 10311 10313 10315 10318 10317 10313 10313 10316 10315 10316 10322 10323 10320 10318 10316 10315 10315 10314 10314 10317 10319 10319 10319 10319 10318 10319 10321 10321 10319 10313 10306 10303 10306 10311 10313 10315 10315 10314 10311 10311 10311 10310 10309 10312 10314 10313 10313 10314 10316 10316 10316 10317 10318 10319 10319 10320 10321 10322 10322 10322 10322 10321 10319 10318 10319 10321 10323 10324 10325 10327 10328 10329 10329 10329 10330 10331 10332 10333 10333 10333 10334 10335 10336 10338 10338
10304 10303 10304 10306 10306 10305 10301 10301 10306 10305 10304 10310 10313 10309 10305 10303 10303 10305 10305 10302 10302 10303 10305 10306 10307 10307 10308 10309 10308 10306 10302 10297 10295 10296 10296 10296 10299 10301 10301 10300 10299 10299 10298 10298 10299 10300 10300 10300 10301 10302 10302 10303 10304 10305 10306 10307 10308 10309 10310 10311 10311 10310 10309 10308 10307 10308 10310 10311 10312 10314 10315 10315 10316 10316 10317 10317 10319 10320 10321 10321 10321 10323 10324 10325 10327 10326
10293 10294 10296 10295 10294 10295 10292 10290 10292 10293 10292 10295 10298 10296 10294 10295 10294 10293 10291 10288 10286 10289 10292 10293 10294 10294 10296 10297 10295 10293 10290 10287 10285 10283 10282 10282 10284 10286 10288 10288 10286 10286 10286 10286 10286 10287 10288 10288 10289 10289 10289 10290 10292 10293 10293 10294 10295 10297 10298 10299 10299 10298 10298 10297 10297 10299 10301 10302 10303 10303 10303 10303 10303 10303 10305 10306 10307 10308 10309 10309 10311 10312 10313 10314 10315 10316
10282 10283 10284 10283 10283 10285 10285 10280 10279 10281 10281 10280 10283 10283 10284 10286 10284 10279 10276 10275 10274 10276 10278 10281 10282 10282 10281 10282 10282 10280 10278 10276 10273 10271 10270 10269 10269 10271 10274 10275 10274 10274 10274 10274 10274 10275 10276 10278 10279 10278 10278 10279 10280 10281 10281 10281 10283 10285 10286 10287 10287 10287 10288 10288 10288 10290 10292 10293 10293 10292 10291 10291 10292 10293 10294 10295 10296 10297 10298 10299 10300 10301 10303 10303 10304 10306
10269 10272 10274 10273 10269 10270 10273 10271 10268 10269 10269 10268 10268 10270 10272 10274 10272 10267 10264 10264 10264 10264 10264 10268 10271 10269 10266 10267 10269 10268 10266 10264 10262 10260 10258 10257 10257 10257 10259 10261 10262 10262 10263 10263 10263 10263 10265 10268 10268 10268 10269 10269 10269 10270 10270 10270 10272 10274 10275 10275 10276 10277 10278 10278 10279 10281 10282 10282 10281 10281 10281 10282 10283 10284 10285 10285 10286 10288 10289 10290 10290 10291 10293 10294 10294 10297
10258 10261 10264 10262 10256 10256 10261 10261 10257 10257 10258 10257 10256 10258 10260 10259 10256 10254 10254 10255 10254 10253 10252 10254 10256 10255 10253 10253 10254 10255 10255 10252 10250 10249 10247 10246 10246 10246 10246 10248 10249 10250 10251 10251 10251 10253 10255 10257 10257 10258 10259 10259 10259 10259 10259 10260 10262 10264 10265 10265 10266 10267 10269 10270 10270 10270 10271 10270 10270 10270 10271 10272 10274 10275 10276 10277 10278 10280 10280 10280 10280 10282 10284 10284 10285 10287
10251 10252 10250 10248 10246 10246 10249 10249 10245 10245 10247 10246 10244 10244 10245 10244 10243 10244 10245 10244 10245 10244 10242 10241 10241 10241 10241 10241 10241 10242 10242 10240 10239 10238 10237 10236 10236 10236 10235 10236 10237 10239 10239 10240 10241 10243 10245 10246 10247 10248 10248 10249 10249 10249 10249 10250 10252 10253 10254 10255 10257 10258 10260 10260 10260 10260 10260 10260 10260 10261 10262 10263 10265 10267 10267 10268 10270 10271 10271 10271 10272 10273 10274 10275 10276 10278
10242 10242 10239 10238 10239 10239 10237 10235 10233 10235 10237 10236 10232 10229 10228 10229 10232 10234 10234 10233 10233 10234 10232 10231 10230 10229 10229 10229 10228 10229 10229 10228 10227 10227 10227 10226 10227 10226 10226 10226 10227 10227 10228 10229 10231 10234 10236 10237 10238 10238 10238 10239 10239 10239 10239 10240 10241 10243 10244 10246 10247 10248 10250 10250 10250 10250 10250 10250 10251 10252 10254 10255 10257 10258 10258 10259 10260 10261 10263 10263 10264 10265 10266 10266 10268 10270
10231 10231 10230 10231 10231 10228 10225 10223 10223 10225 10226 10223 10220 10217 10216 10216 10219 10222 10223 10222 10222 10222 10221 10220 10220 10219 10218 10218 10216 10216 10217 10217 10217 10216 10217 10217 10216 10216 10216 10216 10216 10216 10217 10219 10221 10223 10226 10227 10227 10227 10229 10229 10229 10229 10229 10230 10231 10233 10235 10236 10237 10238 10240 10241 10241 10242 10242 10243 10244 10245 10246 10247 10248 10249 10249 10250 10252 10253 10254 10255 10255 10257 10258 10258 10260 10261
10221 10221 10221 10223 10222 10218 10215 10213 10213 10216 10215 10211 10207 10206 10207 10207 10209 10210 10212 10211 10210 10210 10210 10210 10209 10207 10207 10206 10206 10205 10206 10207 10206 10206 10206 10206 10205 10204 10204 10205 10206 10207 10207 10209 10210 10212 10215 10216 10216 10217 10219 10220 10219 10219 10219 10220 10222 10224 10226 10227 10228 10229 10230 10231 10233 10234 10235 10236 10237 10238 10238 10239 10240 10240 10241 10242 10244 10245 10246 10247 10248 10249 10250 10250 10252 10254
10212 10211 10211 10213 10212 10209 10206 10203 10203 10205 10205 10201 10196 10195 10196 10197 10199 10200 10200 10199 10198 10198 10198 10198 10198 10197 10196 10196 10195 10195 10195 10196 10195 10194 10195 10195 10194 10194 10194 10195 10197 10197 10198 10199 10201 10203 10205 10206 10207 10208 10209 10209 10209 10210 10211 10212 10214 10216 10218 10219 10220 10220 10221 10223 10225 10227 10228 10228 10229 10230 10230 10230 10231 10232 10233 10235 10237 10238 10239 10240 10241 10242 10243 10243 10245 10246